CDT,Max TemperatureF,Mean TemperatureF,Min TemperatureF,Max Dew PointF,MeanDew PointF,Min DewpointF,Max Humidity, Mean Humidity, Min Humidity, Max Sea Level PressureIn, Mean Sea Level PressureIn, Min Sea Level PressureIn, Max VisibilityMiles, Mean VisibilityMiles, Min VisibilityMiles, Max Wind SpeedMPH, Mean Wind SpeedMPH, Max Gust SpeedMPH,PrecipitationIn, CloudCover, Events, WindDirDegrees
2013-9-1,88,76,64,65,60,50,84,59,23,30.02,29.92,29.81,10,9,4,33,19,44,0.08,2,Rain-Thunderstorm,10
2013-9-2,88,72,55,56,52,50,75,49,18,30.10,30.03,29.98,10,10,9,8,5,16,0.00,0,,152
2013-9-3,91,76,62,56,53,50,70,48,21,30.07,30.01,29.96,10,10,7,16,10,23,0.00,0,,165
2013-9-4,93,78,63,56,54,47,70,43,19,30.08,30.03,30.00,10,10,8,18,12,24,0.00,0,,170
2013-9-5,96,79,62,60,53,47,78,42,12,30.09,30.05,30.01,10,9,5,16,11,24,0.00,0,,170
2013-9-6,98,81,64,58,54,45,75,41,12,30.04,29.99,29.91,10,9,6,14,11,24,0.00,0,,183
2013-9-7,100,83,66,57,54,49,70,38,11,29.94,29.91,29.86,10,10,5,15,9,20,0.00,0,,191
2013-9-8,99,84,68,57,54,51,65,38,14,29.90,29.85,29.78,10,10,9,18,10,26,0.00,0,,189
2013-9-9,93,80,66,59,54,50,68,39,14,29.86,29.82,29.77,10,10,10,25,13,33,0.00,0,,183
2013-9-10,91,80,68,60,57,55,68,46,23,30.01,29.94,29.86,10,10,10,21,13,30,0.00,0,,185
2013-9-11,90,78,66,66,61,57,93,62,33,30.14,30.06,30.01,10,10,4,22,10,33,0.20,3,Rain,201
2013-9-12,72,69,66,68,66,64,100,90,83,30.24,30.16,30.07,10,6,2,15,10,21,0.08,7,Rain,69
2013-9-13,70,64,57,66,58,53,94,83,54,30.20,30.12,30.02,10,8,3,17,11,,0.01,6,Rain,109
2013-9-14,82,70,57,65,56,50,87,67,42,30.04,29.95,29.84,10,9,4,21,12,32,0.08,4,Rain-Thunderstorm,162
2013-9-15,86,74,61,64,61,57,90,73,32,30.16,29.98,29.87,10,8,4,23,13,32,0.00,4,Thunderstorm,337
2013-9-16,63,60,57,61,59,55,100,93,86,30.26,30.18,30.10,9,3,0,15,9,21,0.16,8,Fog-Rain,48
2013-9-17,88,74,61,64,62,59,100,78,30,30.17,30.01,29.81,10,6,0,24,12,33,0.02,4,Fog-Rain,174
2013-9-18,91,80,68,63,61,56,81,56,22,29.89,29.76,29.68,10,10,7,30,19,40,0.00,0,,194
2013-9-19,82,73,64,60,58,52,71,55,32,30.03,29.83,29.73,10,10,10,23,15,30,0.02,1,Rain,329
2013-9-20,77,64,51,54,46,37,92,58,17,30.14,30.07,30.01,10,10,7,13,8,,0.02,1,Rain-Thunderstorm,28
2013-9-21,82,66,50,46,43,37,83,44,16,30.07,29.96,29.84,10,10,2,21,10,29,0.00,0,,199
2013-9-22,84,68,53,50,46,43,77,45,18,29.83,29.76,29.67,10,10,10,29,17,39,0.00,0,,165
2013-9-23,80,68,57,46,44,42,62,40,17,29.85,29.69,29.58,10,7,2,36,25,53,0.00,4,,247
2013-9-24,82,68,54,46,39,33,72,40,10,30.01,29.94,29.84,10,10,10,21,14,31,0.00,0,,334
2013-9-25,90,69,48,48,45,41,77,43,11,29.90,29.75,29.61,10,10,9,32,15,40,0.00,0,,164
2013-9-26,95,78,62,53,52,48,70,39,15,29.66,29.61,29.57,10,10,10,31,21,40,0.00,0,,164
2013-9-27,89,78,66,66,58,50,93,56,27,29.79,29.70,29.63,10,9,1,31,20,50,0.35,3,Rain-Thunderstorm,166
2013-9-28,70,58,46,64,46,34,94,68,22,30.14,29.97,29.75,10,8,2,32,19,43,0.12,3,Rain-Thunderstorm,323
2013-9-29,77,61,45,44,39,36,77,49,14,30.14,30.02,29.87,10,10,10,21,10,26,0.00,0,,186
2013-9-30,81,64,48,51,46,43,80,52,21,29.86,29.80,29.73,10,10,10,18,12,25,0.00,0,,168